When you browse on this site, cookies collect data to enhance your experience and personalize the content and advertising you see.
Visit our Privacy Policy to learn more. By continuing to use the site, you agree to this use of cookies and data.
  • In Österreich
  • Länderverzeichnis
  • Für 7 Tage
  • Wassertemperatur
  • Satellitenkarten
  • Wetterkarte
  • News
  • Widgets
  • user-avatar
    Anmelden

    Stündliche Wetter Cykowo

    Heute, 24 April, Mittwoch

    Zeit Temperatur Niederschläge Wind Luftdruck Luftfeuchtigkeit
    00:00 +12°C° 0 mm 5 m/S 752 mmHg 69%
    01:00 +10°C° 0 mm 4 m/S 751 mmHg 78%
    02:00 +10°C° 0 mm 4 m/S 751 mmHg 79%
    03:00 +9°C° 0 mm 5 m/S 751 mmHg 79%
    04:00 +9°C° 0 mm 5 m/S 751 mmHg 79%
    05:00 +10°C° 0 mm 6 m/S 751 mmHg 77%
    06:00 +11°C° 0 mm 6 m/S 751 mmHg 75%
    07:00 +12°C° 0 mm 7 m/S 751 mmHg 73%
    08:00 +14°C° 0 mm 7 m/S 751 mmHg 70%
    09:00 +15°C° 0 mm 7 m/S 751 mmHg 67%
    10:00 +16°C° 0 mm 8 m/S 751 mmHg 64%
    11:00 +17°C° 0 mm 7 m/S 751 mmHg 63%
    12:00 +17°C° 0 mm 7 m/S 751 mmHg 62%
    13:00 +18°C° 0 mm 7 m/S 751 mmHg 61%
    14:00 +20°C° 0 mm 7 m/S 751 mmHg 60%
    15:00 +20°C° 0 mm 7 m/S 751 mmHg 60%
    16:00 +21°C° 0 mm 7 m/S 751 mmHg 59%
    17:00 +20°C° 0 mm 6 m/S 751 mmHg 64%
    18:00 +19°C° 0 mm 5 m/S 751 mmHg 69%
    19:00 +16°C° 0 mm 5 m/S 751 mmHg 75%
    20:00 +16°C° 0 mm 5 m/S 751 mmHg 74%
    21:00 +15°C° 0 mm 5 m/S 751 mmHg 74%
    22:00 +15°C° 0 mm 6 m/S 751 mmHg 74%
    23:00 +15°C° 0 mm 5 m/S 751 mmHg 75%

    Morgen, 25 April, Donnerstag

    Zeit Temperatur Niederschläge Wind Luftdruck Luftfeuchtigkeit
    00:00 +14°C° 0 mm 5 m/S 751 mmHg 77%
    01:00 +14°C° 0 mm 5 m/S 751 mmHg 78%
    02:00 +13°C° 0 mm 5 m/S 751 mmHg 81%
    03:00 +13°C° 0 mm 4 m/S 751 mmHg 83%
    04:00 +12°C° 0 mm 4 m/S 751 mmHg 85%
    05:00 +13°C° 0 mm 4 m/S 751 mmHg 84%
    06:00 +14°C° 0 mm 4 m/S 751 mmHg 83%
    07:00 +14°C° 0 mm 4 m/S 752 mmHg 82%
    08:00 +17°C° 0 mm 3 m/S 752 mmHg 77%
    09:00 +19°C° 0 mm 3 m/S 752 mmHg 72%
    10:00 +20°C° 0 mm 2 m/S 752 mmHg 67%
    11:00 +21°C° 0 mm 2 m/S 752 mmHg 65%
    12:00 +23°C° 0 mm 2 m/S 752 mmHg 63%
    13:00 +23°C° 0 mm 2 m/S 752 mmHg 61%
    14:00 +24°C° 0 mm 1 m/S 752 mmHg 58%
    15:00 +24°C° 0 mm 1 m/S 752 mmHg 56%
    16:00 +22°C° 0 mm 0 m/S 752 mmHg 53%
    17:00 +23°C° 0 mm 1 m/S 752 mmHg 61%
    18:00 +20°C° 0 mm 2 m/S 752 mmHg 68%
    19:00 +19°C° 0 mm 2 m/S 752 mmHg 75%
    20:00 +18°C° 0 mm 2 m/S 752 mmHg 79%
    21:00 +17°C° 0 mm 2 m/S 752 mmHg 83%
    22:00 +16°C° 0 mm 2 m/S 752 mmHg 86%
    23:00 +16°C° 0 mm 2 m/S 752 mmHg 88%

    übermorgen, 26 April, Freitag

    Zeit Temperatur Niederschläge Wind Luftdruck Luftfeuchtigkeit
    00:00 +15°C° 0 mm 2 m/S 752 mmHg 89%
    01:00 +15°C° 0 mm 2 m/S 751 mmHg 90%
    02:00 +14°C° 0 mm 2 m/S 751 mmHg 91%
    03:00 +13°C° 0 mm 3 m/S 751 mmHg 92%
    04:00 +13°C° 0 mm 3 m/S 750 mmHg 92%
    05:00 +14°C° 0 mm 3 m/S 750 mmHg 88%
    06:00 +16°C° 0 mm 3 m/S 750 mmHg 83%
    07:00 +17°C° 0 mm 3 m/S 750 mmHg 78%
    08:00 +18°C° 0 mm 3 m/S 749 mmHg 71%
    09:00 +20°C° 0 mm 3 m/S 749 mmHg 64%
    10:00 +22°C° 0 mm 3 m/S 749 mmHg 57%
    11:00 +24°C° 0 mm 3 m/S 749 mmHg 54%
    12:00 +24°C° 0 mm 3 m/S 748 mmHg 51%
    13:00 +25°C° 0 mm 3 m/S 748 mmHg 48%
    14:00 +25°C° 0 mm 2 m/S 748 mmHg 47%
    15:00 +26°C° 0 mm 1 m/S 747 mmHg 46%
    16:00 +26°C° 0 mm 1 m/S 747 mmHg 45%
    17:00 +24°C° 0 mm 1 m/S 747 mmHg 51%
    18:00 +23°C° 0 mm 1 m/S 748 mmHg 56%
    19:00 +21°C° 0 mm 1 m/S 748 mmHg 62%
    20:00 +19°C° 0.4 mm 3 m/S 748 mmHg 71%
    21:00 +17°C° 0.4 mm 4 m/S 748 mmHg 80%
    22:00 +15°C° 0.4 mm 6 m/S 749 mmHg 90%
    23:00 +14°C° 0.5 mm 6 m/S 749 mmHg 90%

    27 April, Samstag

    Zeit Temperatur Niederschläge Wind Luftdruck Luftfeuchtigkeit
    00:00 +14°C° 0.5 mm 5 m/S 749 mmHg 90%
    01:00 +13°C° 0.5 mm 5 m/S 749 mmHg 90%
    02:00 +11°C° 0.3 mm 6 m/S 750 mmHg 91%
    03:00 +11°C° 0.3 mm 6 m/S 750 mmHg 91%
    04:00 +10°C° 0.3 mm 6 m/S 750 mmHg 91%
    05:00 +10°C° 0.3 mm 6 m/S 751 mmHg 91%
    06:00 +9°C° 0.3 mm 6 m/S 751 mmHg 90%
    07:00 +9°C° 0.3 mm 6 m/S 751 mmHg 90%
    08:00 +9°C° 0.2 mm 6 m/S 751 mmHg 88%
    09:00 +9°C° 0.2 mm 6 m/S 752 mmHg 86%
    10:00 +9°C° 0.2 mm 6 m/S 752 mmHg 84%
    11:00 +11°C° 0 mm 6 m/S 752 mmHg 76%
    12:00 +13°C° 0 mm 6 m/S 752 mmHg 69%
    13:00 +15°C° 0 mm 6 m/S 752 mmHg 61%
    14:00 +15°C° 0 mm 5 m/S 752 mmHg 58%
    15:00 +15°C° 0 mm 5 m/S 751 mmHg 56%
    16:00 +17°C° 0 mm 4 m/S 751 mmHg 53%
    17:00 +16°C° 0 mm 3 m/S 751 mmHg 58%
    18:00 +13°C° 0 mm 3 m/S 751 mmHg 63%
    19:00 +13°C° 0 mm 2 m/S 752 mmHg 68%
    20:00 +13°C° 0 mm 1 m/S 752 mmHg 68%
    21:00 +12°C° 0 mm 1 m/S 752 mmHg 69%
    22:00 +12°C° 0 mm 1 m/S 752 mmHg 69%
    23:00 +12°C° 0 mm 1 m/S 752 mmHg 71%

    28 April, Sonntag

    Zeit Temperatur Niederschläge Wind Luftdruck Luftfeuchtigkeit
    00:00 +11°C° 0 mm 1 m/S 752 mmHg 72%
    01:00 +11°C° 0 mm 1 m/S 753 mmHg 74%
    02:00 +11°C° 0 mm 1 m/S 753 mmHg 78%
    03:00 +10°C° 0 mm 1 m/S 753 mmHg 82%
    04:00 +9°C° 0 mm 2 m/S 753 mmHg 87%
    05:00 +9°C° 0 mm 2 m/S 753 mmHg 86%
    06:00 +10°C° 0 mm 3 m/S 754 mmHg 86%
    07:00 +11°C° 0 mm 3 m/S 754 mmHg 86%
    08:00 +12°C° 0 mm 3 m/S 754 mmHg 82%
    09:00 +13°C° 0 mm 4 m/S 754 mmHg 78%
    10:00 +14°C° 0 mm 4 m/S 754 mmHg 74%
    11:00 +14°C° 0 mm 4 m/S 755 mmHg 71%
    12:00 +15°C° 0 mm 4 m/S 755 mmHg 68%
    13:00 +17°C° 0 mm 4 m/S 755 mmHg 65%
    14:00 +17°C° 0.1 mm 4 m/S 755 mmHg 63%
    15:00 +17°C° 0.1 mm 4 m/S 755 mmHg 61%
    16:00 +18°C° 0.1 mm 4 m/S 755 mmHg 59%
    17:00 +17°C° 0 mm 4 m/S 755 mmHg 62%
    18:00 +14°C° 0 mm 4 m/S 755 mmHg 65%
    19:00 +13°C° 0 mm 3 m/S 755 mmHg 69%
    20:00 +12°C° 0 mm 3 m/S 756 mmHg 71%
    21:00 +12°C° 0 mm 3 m/S 756 mmHg 74%
    22:00 +11°C° 0 mm 3 m/S 756 mmHg 76%
    23:00 +10°C° 0 mm 3 m/S 756 mmHg 77%

    29 April, Montag

    Zeit Temperatur Niederschläge Wind Luftdruck Luftfeuchtigkeit
    00:00 +10°C° 0 mm 3 m/S 756 mmHg 78%
    01:00 +10°C° 0 mm 3 m/S 756 mmHg 80%
    02:00 +9°C° 0 mm 3 m/S 756 mmHg 82%
    03:00 +9°C° 0 mm 3 m/S 756 mmHg 85%
    04:00 +8°C° 0 mm 3 m/S 756 mmHg 88%
    05:00 +8°C° 0 mm 4 m/S 756 mmHg 88%
    06:00 +8°C° 0 mm 4 m/S 756 mmHg 87%
    07:00 +10°C° 0 mm 4 m/S 756 mmHg 87%
    08:00 +10°C° 0.1 mm 4 m/S 756 mmHg 85%
    09:00 +11°C° 0.1 mm 4 m/S 756 mmHg 84%
    10:00 +12°C° 0.1 mm 4 m/S 755 mmHg 83%
    11:00 +12°C° 0.2 mm 4 m/S 755 mmHg 85%
    12:00 +12°C° 0.2 mm 4 m/S 755 mmHg 86%
    13:00 +12°C° 0.2 mm 4 m/S 755 mmHg 88%
    14:00 +12°C° 0.8 mm 4 m/S 755 mmHg 90%
    15:00 +12°C° 0.8 mm 4 m/S 755 mmHg 91%
    16:00 +13°C° 0.8 mm 4 m/S 755 mmHg 93%
    17:00 +13°C° 1 mm 3 m/S 755 mmHg 92%
    18:00 +13°C° 1 mm 3 m/S 755 mmHg 92%
    19:00 +13°C° 1 mm 3 m/S 755 mmHg 91%
    20:00 +12°C° 0 mm 3 m/S 756 mmHg 92%
    21:00 +11°C° 0 mm 3 m/S 756 mmHg 92%
    22:00 +10°C° 0 mm 4 m/S 756 mmHg 93%
    23:00 +10°C° 0 mm 4 m/S 756 mmHg 93%
    Mehr zeigen